Weather History for Noatak, AK

Change the Weather History Date:

Sunday, September 30, 2012

  Actual Average Record
Temperature  
Mean Temperature 34 °F -  
Max Temperature 37 °F 35 °F 46 °F (2003)
Min Temperature 32 °F 24 °F -5 °F (2008)
Degree Days  
Heating Degree Days 30    
Moisture  
Dew Point 29 °F    
Average Humidity 84    
Maximum Humidity 93    
Minimum Humidity 75    
Precipitation  
Precipitation 0.00 in - - ()
Sea Level Pressure  
Sea Level Pressure 29.94 in    
Wind  
Wind Speed 7 mph (SSE)    
Max Wind Speed 17 mph    
Max Gust Speed 21 mph    
Visibility 9 miles    
Events      
Averages and records for this station are not official NWS values.
T = Trace of Precipitation, MM = Missing Value Source: NWS Daily Summary

Daily Weather History Graph

Daily Weather History Graph

Search for Another Location

Airport:

Trip Planner

Search our weather history database for the weather conditions in past years. The results will help you decide how hot, cold, wet, or windy it might be!

Date:

Astronomy

Sep. 30, 2012 Rise Set
Actual Time 9:03 AM AKDT 8:17 PM AKDT
Civil Twilight 8:09 AM AKDT 9:12 PM AKDT
Nautical Twilight 7:03 AM AKDT 10:16 PM AKDT
Astronomical Twilight 5:50 AM AKDT 11:29 PM AKDT
Moon 7:32 PM AKDT (9/30) 10:32 AM AKDT (9/30)
Length of Visible Light 13h 02m
Length of Day
11h 14m
Full, 100% of the Moon is Illuminated
Sep 30
Full
Oct 7
Last Quarter
Oct 15
New
Oct 21
First Quarter
Oct 29
Full

Hourly Weather History & Observations

Time (AKDT) Temp. Windchill Dew Point Humidity Pressure Visibility Wind Dir Wind Speed Gust Speed Precip Events Conditions
12:16 AM 35.6 °F 28.6 °F 28.4 °F 75% 29.85 in 10.0 mi ESE 9.2 mph - N/A   Overcast
12:36 AM 33.8 °F 27.7 °F 28.4 °F 81% 29.85 in 10.0 mi SE 6.9 mph - N/A   Overcast
12:56 AM 33.8 °F 26.4 °F 28.4 °F 81% 29.85 in 10.0 mi SE 9.2 mph - N/A   Overcast
1:16 AM 33.8 °F 27.7 °F 28.4 °F 81% 29.85 in 10.0 mi SE 6.9 mph - N/A   Overcast
1:56 AM 33.8 °F 29.6 °F 28.4 °F 81% 29.86 in 10.0 mi SSE 4.6 mph - N/A   Overcast
2:16 AM 33.8 °F 28.6 °F 28.4 °F 81% 29.86 in 10.0 mi SSE 5.8 mph - N/A   Overcast
2:36 AM 33.8 °F 27.7 °F 28.4 °F 81% 29.86 in 8.0 mi SE 6.9 mph - N/A   Overcast
2:56 AM 33.8 °F 28.6 °F 28.4 °F 81% 29.87 in 4.0 mi SSE 5.8 mph - N/A   Overcast
3:16 AM 33.8 °F 30.8 °F 28.4 °F 81% 29.87 in 10.0 mi SSE 3.5 mph - N/A   Overcast
3:56 AM 33.8 °F 27.0 °F 28.4 °F 81% 29.88 in 10.0 mi SSE 8.1 mph - N/A   Overcast
4:16 AM 33.8 °F 28.6 °F 28.4 °F 81% 29.89 in 10.0 mi SSE 5.8 mph - N/A   Overcast
4:36 AM 33.8 °F 28.6 °F 28.4 °F 81% 29.89 in 10.0 mi SSE 5.8 mph - N/A   Overcast
4:56 AM 33.8 °F 29.6 °F 28.4 °F 81% 29.89 in 10.0 mi South 4.6 mph - N/A   Overcast
5:16 AM 33.8 °F 27.7 °F 28.4 °F 81% 29.90 in 10.0 mi SSE 6.9 mph - N/A   Overcast
5:36 AM 33.8 °F 27.7 °F 28.4 °F 81% 29.90 in 10.0 mi SSE 6.9 mph - N/A   Overcast
5:56 AM 32.0 °F 26.4 °F 28.4 °F 87% 29.91 in 10.0 mi SSE 5.8 mph - N/A   Overcast
6:16 AM 32.0 °F 26.4 °F 28.4 °F 87% 29.91 in 10.0 mi SSE 5.8 mph - N/A   Overcast
6:36 AM 32.0 °F 25.6 °F 28.4 °F 87% 29.91 in 10.0 mi SSE 6.9 mph - N/A   Overcast
6:56 AM 32.0 °F 27.5 °F 28.4 °F 87% 29.92 in 10.0 mi SSE 4.6 mph - N/A   Overcast
7:16 AM 32.0 °F 26.4 °F 28.4 °F 87% 29.92 in 10.0 mi SSE 5.8 mph - N/A   Overcast
7:36 AM 32.0 °F 25.6 °F 28.4 °F 87% 29.92 in 10.0 mi SSE 6.9 mph - N/A   Overcast
7:56 AM 32.0 °F 26.4 °F 28.4 °F 87% 29.92 in 10.0 mi SSE 5.8 mph - N/A   Overcast
8:16 AM 32.0 °F 28.7 °F 28.4 °F 87% 29.92 in 10.0 mi SE 3.5 mph - N/A   Overcast
8:36 AM 32.0 °F 27.5 °F 28.4 °F 87% 29.93 in 10.0 mi SSE 4.6 mph - N/A   Overcast
8:56 AM 32.0 °F 26.4 °F 28.4 °F 87% 29.93 in 10.0 mi SSE 5.8 mph - N/A   Overcast
9:16 AM 32.0 °F 25.6 °F 28.4 °F 87% 29.94 in 10.0 mi SSE 6.9 mph - N/A   Overcast
9:36 AM 32.0 °F 26.4 °F 28.4 °F 87% 29.94 in 10.0 mi South 5.8 mph - N/A   Overcast
9:56 AM 32.0 °F 27.5 °F 28.4 °F 87% 29.95 in 10.0 mi South 4.6 mph - N/A   Overcast
10:16 AM 32.0 °F 27.5 °F 28.4 °F 87% 29.95 in 10.0 mi South 4.6 mph - N/A   Overcast
10:36 AM 32.0 °F 28.7 °F 28.4 °F 87% 29.95 in 10.0 mi South 3.5 mph - N/A   Overcast
10:56 AM 32.0 °F - 28.4 °F 87% 29.96 in 8.0 mi Calm Calm - N/A   Mostly Cloudy
11:16 AM 32.0 °F - 28.4 °F 87% 29.96 in 6.0 mi Calm Calm - N/A   Overcast
11:36 AM 32.0 °F 28.7 °F 28.4 °F 87% 29.96 in 1.5 mi South 3.5 mph - N/A   Overcast
11:56 AM 32.0 °F 28.7 °F 28.4 °F 87% 29.96 in 1.0 mi SSE 3.5 mph - N/A   Overcast
12:16 PM 32.0 °F - 28.4 °F 87% 29.97 in 4.0 mi Calm Calm - N/A   Overcast
12:36 PM 32.0 °F - 28.4 °F 87% 29.97 in 1.2 mi Calm Calm - N/A   Overcast
12:56 PM 32.0 °F - 28.4 °F 87% 29.97 in 1.8 mi Calm Calm - N/A   Overcast
1:16 PM 32.0 °F - 30.2 °F 93% 29.97 in 10.0 mi Calm Calm - N/A   Overcast
1:36 PM 33.8 °F 28.6 °F 30.2 °F 87% 29.97 in 10.0 mi SE 5.8 mph - N/A   Overcast
1:56 PM 33.8 °F 28.6 °F 30.2 °F 87% 29.97 in 8.0 mi SE 5.8 mph - N/A   Overcast
2:16 PM 35.6 °F 29.2 °F 32.0 °F 87% 29.96 in 10.0 mi SSE 8.1 mph - N/A   Overcast
2:36 PM 35.6 °F 27.5 °F 30.2 °F 81% 29.96 in 10.0 mi SSE 11.5 mph 18.4 mph N/A   Overcast
2:56 PM 35.6 °F 29.2 °F 32.0 °F 87% 29.96 in 10.0 mi SSE 8.1 mph - N/A   Overcast
3:16 PM 37.4 °F 28.2 °F 30.2 °F 75% 29.96 in 10.0 mi SSE 16.1 mph 19.6 mph N/A   Overcast
3:36 PM 37.4 °F 28.5 °F 30.2 °F 75% 29.96 in 10.0 mi SSE 15.0 mph 20.7 mph N/A   Overcast
3:56 PM 37.4 °F 27.8 °F 30.2 °F 75% 29.96 in 10.0 mi SSE 17.3 mph - N/A   Overcast
4:16 PM 37.4 °F 28.5 °F 30.2 °F 75% 29.96 in 10.0 mi SSE 15.0 mph - N/A   Overcast
4:36 PM 37.4 °F 28.9 °F 30.2 °F 75% 29.96 in 10.0 mi SSE 13.8 mph - N/A   Mostly Cloudy
4:56 PM 35.6 °F 26.6 °F 30.2 °F 81% 29.97 in 8.0 mi SSE 13.8 mph 19.6 mph N/A   Overcast
5:16 PM 33.8 °F 24.8 °F 30.2 °F 87% 29.97 in 7.0 mi SSE 12.7 mph - N/A   Mostly Cloudy
5:36 PM 33.8 °F 23.2 °F 30.2 °F 87% 29.96 in 7.0 mi SE 17.3 mph - N/A   Mostly Cloudy
5:56 PM 33.8 °F 25.8 °F 30.2 °F 87% 29.97 in 10.0 mi SE 10.4 mph - N/A   Mostly Cloudy
6:16 PM 35.6 °F 29.2 °F 30.2 °F 81% 29.97 in 10.0 mi SSE 8.1 mph - N/A   Overcast
6:36 PM 35.6 °F 29.9 °F 32.0 °F 87% 29.97 in 10.0 mi SE 6.9 mph - N/A   Overcast
6:56 PM 35.6 °F 30.7 °F 32.0 °F 87% 29.97 in 8.0 mi South 5.8 mph - N/A   Overcast
7:16 PM 35.6 °F 30.7 °F 30.2 °F 81% 29.97 in 10.0 mi SE 5.8 mph - N/A   Unknown
7:36 PM 35.6 °F 30.7 °F 32.0 °F 87% 29.97 in 9.0 mi SE 5.8 mph - N/A   Overcast
7:56 PM 35.6 °F 29.2 °F 30.2 °F 81% 29.97 in 10.0 mi SSE 8.1 mph - N/A   Overcast
8:16 PM 35.6 °F 29.9 °F 30.2 °F 81% 29.97 in 10.0 mi SSE 6.9 mph - N/A   Overcast
8:36 PM 33.8 °F 27.7 °F 30.2 °F 87% 29.97 in 4.0 mi SSE 6.9 mph - N/A   Overcast
8:56 PM 33.8 °F 28.6 °F 30.2 °F 87% 29.97 in 10.0 mi SE 5.8 mph - N/A   Overcast
9:16 PM 33.8 °F 27.0 °F 30.2 °F 87% 29.98 in 7.0 mi South 8.1 mph - N/A   Mostly Cloudy
9:36 PM 33.8 °F 27.0 °F 30.2 °F 87% 29.98 in 10.0 mi SSE 8.1 mph - N/A   Overcast
9:56 PM 33.8 °F 28.6 °F 30.2 °F 87% 29.98 in 6.0 mi SSE 5.8 mph - N/A   Overcast
10:16 PM 33.8 °F 26.4 °F 30.2 °F 87% 29.98 in 10.0 mi SSE 9.2 mph - N/A   Overcast
10:36 PM 33.8 °F 27.0 °F 30.2 °F 87% 29.98 in 10.0 mi SSE 8.1 mph - N/A   Overcast
10:56 PM 33.8 °F 29.6 °F 30.2 °F 87% 29.98 in 10.0 mi SE 4.6 mph - N/A   Overcast
11:16 PM 33.8 °F 28.6 °F 30.2 °F 87% 29.98 in 10.0 mi SE 5.8 mph - N/A   Overcast
11:36 PM 33.8 °F 27.7 °F 30.2 °F 87% 29.99 in 10.0 mi SE 6.9 mph - N/A   Overcast
11:56 PM 33.8 °F 28.6 °F 30.2 °F 87% 29.99 in 10.0 mi SSE 5.8 mph - N/A   Overcast